1504558800.26,14418,16.44,73680.5,-3.07,-7.57,-8.71,0,*57
1504558801.5,14419,16.44,73680.8,-3.09,-7.39,-8.75,0,*54
1504558802.75,14420,16.44,73684.0,-3.09,-7.77,-9.79,0,*59
1504558803.99,14421,16.44,73688.8,-3.09,-8.45,-10.97,0,*6E
1504558805.27,14422,16.44,73682.8,-3.09,-9.45,-12.35,0,*66
1504558806.56,14423,16.44,73680.5,-3.09,-10.79,-14.01,0,*51
1504558807.82,14424,16.44,73678.0,-3.09,-10.53,-12.79,0,*57
1504558809.06,14425,16.44,73678.0,-3.09,-9.57,-12.43,0,*63
1504558810.32,14426,16.44,73676.5,-3.09,-9.31,-11.81,0,*6D
1504558811.57,14427,16.44,73680.0,-3.09,-8.97,-11.67,0,*69
1504558812.86,14428,16.44,73682.5,-3.09,-9.45,-12.75,0,*68
1504558814.12,14429,16.44,73686.0,-3.09,-10.27,-12.75,0,*55
1504558815.37,14430,16.44,73686.5,-3.09,-10.23,-11.33,0,*58
1504558816.61,14431,16.44,73688.5,-3.09,-9.31,-10.35,0,*65
1504558817.87,14432,16.44,73690.0,-3.09,-8.75,-10.41,0,*64
1504558819.09,14433,16.44,73688.3,-3.07,-9.05,-10.27,0,*6D
1504558820.31,14434,16.44,73692.8,-3.09,-8.59,-9.19,0,*59
1504558821.59,14435,16.44,73692.8,-3.09,-7.65,-7.91,0,*56
1504558822.84,14436,16.44,73698.3,-3.09,-6.97,-7.83,0,*5A
1504558824.1,14437,16.44,73694.3,-3.09,-7.57,-8.85,0,*5F
1504558825.35,14438,16.44,73688.0,-3.09,-8.07,-8.37,0,*53
1504558826.6,14439,16.44,73692.5,-3.09,-7.23,-7.69,0,*5F
1504558827.85,14440,16.44,73680.8,-3.09,-7.15,-7.95,0,*57
1504558829.1,14441,16.44,73680.8,-3.09,-6.77,-7.39,0,*55
1504558830.31,14442,16.44,73682.8,-3.07,-6.43,-7.23,0,*54
1504558831.54,14443,16.44,73684.3,-3.09,-6.35,-7.15,0,*5F
1504558832.79,14444,16.44,73688.0,-3.07,-6.97,-7.39,0,*50
1504558834.03,14445,16.44,73694.3,-3.07,-7.27,-7.39,0,*5B
1504558835.28,14446,16.44,73692.5,-3.07,-7.65,-8.11,0,*5B
1504558836.52,14447,16.44,73692.5,-3.05,-7.39,-8.97,0,*5F
1504558837.76,14448,16.44,73698.0,-3.07,-7.31,-9.57,0,*57
1504558839.02,14449,16.44,73698.3,-3.07,-7.77,-10.63,0,*6B
1504558840.25,14450,16.44,73696.8,-3.07,-8.11,-10.85,0,*64
1504558841.45,14451,16.44,73700.3,-3.07,-8.97,-11.19,0,*6F
1504558842.71,14452,16.44,73700.0,-3.07,-9.41,-11.67,0,*6F
1504558843.96,14453,16.44,73702.3,-3.07,-9.41,-12.61,0,*6B
1504558845.22,14454,16.44,73702.5,-3.05,-10.93,-12.61,0,*59
1504558846.47,14455,16.44,73698.8,-3.07,-10.75,-11.33,0,*56
1504558847.71,14456,16.44,73700.3,-3.07,-9.83,-9.41,0,*58
1504558848.92,14457,16.44,73700.5,-3.07,-8.25,-8.21,0,*53
1504558850.18,14458,16.44,73696.0,-3.05,-7.27,-7.39,0,*55
1504558851.43,14459,16.44,73698.5,-3.07,-6.97,-7.01,0,*57
1504558852.64,14460,16.44,73696.0,-3.07,-6.77,-6.51,0,*57
1504558853.83,14461,16.44,73702.8,-3.07,-6.31,-5.97,0,*5D
1504558855.05,14462,16.44,73698.8,-3.07,-6.23,-6.09,0,*59
1504558856.27,14463,16.44,73704.8,-3.07,-6.19,-6.05,0,*5D
1504558857.53,14464,16.44,73706.3,-3.07,-5.93,-5.81,0,*54
1504558858.76,14465,16.44,73708.8,-3.07,-5.51,-5.61,0,*55
1504558859.98,14466,16.44,73708.0,-3.07,-5.43,-5.85,0,*5F
1504558861.18,14467,16.44,73708.3,-3.07,-5.43,-6.05,0,*55
1504558862.43,14468,16.44,73706.5,-3.07,-5.69,-6.19,0,*5F
1504558863.65,14469,16.44,73710.0,-3.07,-5.93,-6.09,0,*5A
1504558864.9,14470,16.44,73704.8,-3.05,-6.19,-6.13,0,*5A
1504558866.12,14471,16.44,73706.5,-3.07,-6.05,-5.85,0,*58
1504558867.37,14472,16.44,73710.3,-3.07,-5.69,-5.69,0,*50
1504558868.62,14473,16.44,73706.8,-3.07,-5.61,-5.81,0,*5F
1504558869.87,14474,16.44,73712.0,-3.05,-5.55,-5.69,0,*5B
1504558871.1,14475,16.44,73712.3,-3.05,-5.51,-5.51,0,*55
1504558872.33,14476,16.44,73712.0,-3.05,-5.51,-5.55,0,*52
1504558873.56,14477,16.44,73714.0,-3.05,-5.51,-5.55,0,*53
1504558874.77,14478,16.44,73710.5,-3.05,-5.35,-5.47,0,*5D
1504558876.02,14479,16.44,73708.0,-3.05,-5.27,-5.51,0,*58
1504558877.27,14480,16.44,73710.3,-3.05,-5.15,-5.39,0,*51
1504558878.54,14481,16.44,73712.8,-3.05,-5.15,-5.81,0,*53
1504558879.76,14482,16.44,73712.5,-3.05,-5.47,-6.05,0,*58
1504558880.97,14483,16.44,73712.0,-3.05,-5.35,-5.39,0,*50
1504558882.22,14484,16.44,73712.5,-3.05,-5.03,-5.35,0,*5E
1504558883.48,14485,16.44,73716.8,-3.03,-5.07,-5.07,0,*5C
1504558884.72,14486,16.44,73716.3,-3.03,-4.93,-5.11,0,*54
1504558885.95,14487,16.44,73720.3,-3.03,-5.19,-5.43,0,*51
1504558887.18,14488,16.44,73716.0,-3.03,-5.47,-5.89,0,*53
1504558888.43,14489,16.44,73710.8,-3.01,-5.77,-6.13,0,*53
1504558889.67,14490,16.44,73708.3,-3.01,-5.73,-6.01,0,*5C
1504558890.92,14491,16.44,73704.5,-3.03,-5.85,-6.23,0,*56
1504558892.12,14492,16.44,73698.8,-3.03,-5.97,-6.43,0,*50
1504558893.34,14493,16.44,73702.8,-3.03,-5.89,-6.13,0,*5B
1504558894.55,14494,16.44,73710.0,-3.03,-5.51,-6.55,0,*5B
1504558895.75,14495,16.44,73698.5,-3.03,-5.97,-7.15,0,*55
1504558896.94,14496,16.44,73696.8,-3.03,-6.39,-7.15,0,*51
1504558898.15,14497,16.44,73698.0,-3.03,-6.81,-7.15,0,*53
1504558899.38,14498,16.44,73702.3,-3.01,-6.55,-6.43,0,*55
1504558900.6,14499,16.44,73710.0,-3.01,-5.97,-6.01,0,*5F
1504558901.85,14500,16.44,73710.0,-3.01,-6.23,-6.55,0,*53
1504558903.1,14501,16.44,73710.5,-3.01,-6.13,-6.27,0,*54
1504558904.32,14502,16.44,73714.5,-3.01,-5.97,-6.09,0,*54
1504558905.57,14503,16.44,73716.3,-3.01,-6.23,-6.43,0,*57
1504558906.81,14504,16.44,73712.8,-3.01,-6.35,-6.81,0,*59
1504558908.04,14505,16.44,73714.8,-3.01,-6.51,-6.55,0,*53
1504558909.29,14506,16.44,73700.3,-3.01,-5.89,-6.13,0,*54
1504558910.54,14507,16.44,73706.5,-3.01,-5.47,-5.65,0,*55
1504558911.76,14508,16.44,73686.0,-3.01,-5.35,-5.43,0,*5B
1504558913.02,14509,16.44,73694.8,-2.99,-5.03,-5.27,0,*5D
1504558914.27,14510,16.44,73690.5,-2.99,-5.15,-5.69,0,*58
1504558915.5,14511,16.44,73702.3,-2.99,-5.31,-5.55,0,*50
1504558916.75,14512,16.44,73708.3,-3.01,-5.35,-5.73,0,*53
1504558918.0,14513,16.44,73710.0,-3.01,-5.85,-6.09,0,*57
1504558919.23,14514,16.44,73704.8,-2.99,-6.23,-6.51,0,*52
1504558920.45,14515,16.44,73706.5,-2.99,-6.23,-6.73,0,*53
1504558921.67,14516,16.44,73708.3,-2.97,-6.35,-6.89,0,*5C
1504558922.92,14517,16.44,73708.5,-2.99,-6.19,-7.01,0,*5C
1504558924.17,14518,16.44,73716.8,-3.01,-6.27,-7.23,0,*5E
1504558925.4,14519,16.44,73710.8,-2.99,-6.59,-7.39,0,*5D
1504558926.6,14520,16.44,73716.5,-2.99,-6.47,-7.11,0,*52
1504558927.8,14521,16.44,73710.0,-2.99,-6.77,-7.15,0,*54
1504558929.01,14522,16.44,73716.8,-2.99,-6.59,-7.11,0,*5F
1504558930.26,14523,16.44,73710.8,-2.97,-6.77,-7.99,0,*5C
1504558931.48,14524,16.44,73716.5,-2.99,-7.43,-8.89,0,*5D
1504558932.7,14525,16.44,73716.8,-2.99,-7.91,-8.63,0,*57
1504558933.92,14526,16.44,73722.5,-2.99,-8.11,-8.63,0,*53
1504558935.13,14527,16.44,73718.5,-2.99,-7.91,-8.71,0,*56
1504558936.33,14528,16.44,73720.3,-2.99,-8.45,-9.05,0,*5D
1504558937.53,14529,16.5,73720.8,-2.99,-8.89,-9.31,0,*5B
1504558938.73,14530,16.44,73716.3,-2.99,-9.05,-9.05,0,*51
1504558939.94,14531,16.44,73716.5,-2.99,-8.71,-7.83,0,*52
1504558941.19,14532,16.44,73712.5,-2.99,-8.11,-6.97,0,*53
1504558942.46,14533,16.44,73718.0,-3.01,-7.05,-5.73,0,*51
1504558943.69,14534,16.44,73694.8,-3.03,-5.65,-5.43,0,*53
1504558944.94,14535,16.44,73694.8,-3.01,-5.35,-5.65,0,*51
1504558946.21,14536,16.44,73694.5,-3.01,-5.61,-5.89,0,*51
1504558947.47,14537,16.44,73692.0,-3.01,-5.51,-5.85,0,*5F
1504558948.7,14538,16.44,73686.5,-3.03,-5.85,-6.55,0,*55
1504558949.93,14539,16.44,73686.8,-3.01,-6.55,-6.51,0,*5C
1504558951.19,14540,16.44,73676.3,-3.01,-6.09,-5.85,0,*51
1504558952.41,14541,16.44,73694.0,-3.01,-5.43,-5.35,0,*56
1504558953.66,14542,16.44,73708.0,-3.01,-5.31,-5.35,0,*50
1504558954.91,14543,16.44,73676.5,-2.97,-5.19,-5.39,0,*59
1504558956.14,14544,16.44,73664.3,-2.99,-5.39,-5.31,0,*5A
1504558957.39,14545,16.44,73668.8,-2.99,-5.07,-5.03,0,*57
1504558958.64,14546,16.44,73688.3,-2.99,-4.77,-5.07,0,*56
1504558959.88,14547,16.44,73684.5,-2.99,-4.77,-5.19,0,*58
1504558961.15,14548,16.44,73688.8,-2.97,-4.93,-5.81,0,*52
1504558962.37,14549,16.44,73710.5,-2.99,-5.73,-7.11,0,*59
1504558963.61,14550,16.44,73712.3,-2.99,-7.39,-8.51,0,*56
1504558964.82,14551,16.44,73718.8,-2.99,-8.89,-8.89,0,*56
1504558966.05,14552,16.44,73710.8,-2.99,-7.69,-7.11,0,*5A
1504558967.24,14553,16.44,73712.3,-2.99,-6.35,-6.05,0,*57
1504558968.44,14554,16.44,73712.3,-2.99,-6.51,-6.05,0,*52
1504558969.67,14555,16.44,73704.5,-2.97,-6.09,-5.47,0,*55
1504558970.89,14556,16.44,73700.5,-2.97,-5.47,-5.47,0,*5F
1504558972.12,14557,16.44,73714.8,-2.99,-5.39,-5.81,0,*53
1504558973.36,14558,16.44,73712.0,-2.97,-5.85,-6.09,0,*56
1504558974.61,14559,16.44,73678.5,-2.99,-5.61,-5.81,0,*50
1504558975.85,14560,16.44,73674.8,-2.97,-5.39,-5.73,0,*54
1504558977.1,14561,16.44,73686.8,-2.97,-5.43,-5.81,0,*55
1504558978.37,14562,16.44,73692.3,-2.97,-5.69,-6.23,0,*55
1504558979.62,14563,16.44,73686.3,-2.97,-6.23,-7.11,0,*59
1504558980.84,14564,16.44,73690.0,-2.97,-6.51,-6.89,0,*5B
1504558982.07,14565,16.44,73700.0,-2.97,-6.51,-6.59,0,*57
1504558983.32,14566,16.44,73706.8,-2.97,-6.59,-7.27,0,*54
1504558984.54,14567,16.44,73704.0,-2.97,-7.19,-8.33,0,*5A
1504558985.81,14568,16.44,73702.0,-2.97,-8.11,-9.15,0,*57
1504558987.06,14569,16.44,73698.3,-2.97,-8.11,-8.45,0,*52
1504558988.3,14570,16.44,73708.5,-2.99,-7.39,-7.69,0,*50
1504558989.55,14571,16.44,73714.5,-2.97,-6.73,-7.57,0,*5D
1504558990.82,14572,16.44,73700.5,-2.97,-7.69,-8.51,0,*5D
1504558992.09,14573,16.44,73698.3,-2.97,-7.77,-8.11,0,*57
1504558993.33,14574,16.44,73706.0,-2.97,-7.57,-7.53,0,*5B
1504558994.6,14575,16.44,73706.5,-2.97,-6.63,-7.31,0,*58
1504558995.8,14576,16.44,73712.3,-2.99,-6.39,-6.89,0,*58
1504558996.99,14577,16.44,73704.8,-2.99,-6.09,-6.09,0,*52
1504558998.27,14578,16.44,73698.3,-2.97,-5.81,-5.31,0,*58
1504558999.52,14579,16.44,73704.0,-2.97,-5.39,-5.27,0,*5D
1504559000.79,14580,16.44,73718.8,-2.97,-5.19,-5.73,0,*58
1504559002.04,14581,16.44,73708.0,-2.97,-5.85,-6.89,0,*5A
1504559003.27,14582,16.44,73696.8,-2.97,-7.11,-8.45,0,*58
1504559004.51,14583,16.44,73706.5,-2.97,-7.69,-8.59,0,*5B
1504559005.76,14584,16.44,73710.8,-2.97,-7.65,-7.83,0,*58
1504559007.01,14585,16.44,73712.8,-2.97,-6.85,-7.65,0,*5E
1504559008.28,14586,16.44,73712.5,-2.97,-6.97,-7.69,0,*52
1504559009.53,14587,16.44,73712.3,-2.97,-6.89,-7.77,0,*53
1504559010.77,14588,16.44,73716.8,-2.97,-7.99,-9.27,0,*57
1504559012.0,14589,16.44,73704.0,-2.97,-8.37,-9.05,0,*5D
1504559013.26,14590,16.44,73708.0,-2.99,-9.15,-9.53,0,*59
1504559014.49,14591,16.44,73710.0,-2.97,-9.27,-10.23,0,*68
1504559015.69,14592,16.44,73710.8,-2.95,-9.67,-11.11,0,*6D
1504559016.98,14593,16.44,73712.0,-2.97,-10.63,-11.07,0,*55
1504559018.2,14594,16.44,73708.8,-2.97,-9.97,-10.35,0,*61
1504559019.46,14595,16.44,73710.5,-2.97,-9.45,-10.53,0,*6F
1504559020.69,14596,16.44,73708.3,-2.99,-9.71,-11.37,0,*66
1504559021.92,14597,16.44,73708.8,-2.97,-9.71,-11.23,0,*6C
1504559023.2,14598,16.44,73708.8,-2.97,-10.63,-11.37,0,*5D
1504559024.46,14599,16.44,73706.5,-2.97,-10.79,-10.09,0,*5B
1504559025.69,14600,16.44,73702.8,-2.97,-9.57,-8.71,0,*5A
1504559026.92,14601,16.44,73706.3,-2.99,-7.01,-7.11,0,*51
1504559028.14,14602,16.44,73708.8,-2.97,-6.09,-6.89,0,*55
1504559029.42,14603,16.44,73712.0,-2.97,-6.19,-7.65,0,*56
1504559030.62,14604,16.44,73704.8,-2.99,-6.59,-7.53,0,*5E
1504559031.84,14605,16.44,73710.8,-2.97,-6.89,-8.37,0,*51
1504559033.04,14606,16.44,73712.8,-2.99,-8.33,-10.97,0,*60
1504559034.32,14607,16.44,73710.8,-2.97,-10.41,-11.81,0,*55
1504559035.54,14608,16.44,73706.8,-2.97,-10.09,-10.85,0,*53
1504559036.76,14609,16.44,73698.3,-2.97,-9.97,-11.45,0,*60
1504559037.99,14610,16.44,73696.0,-2.99,-8.59,-9.15,0,*59
1504559039.21,14611,16.44,73714.3,-2.99,-7.69,-8.89,0,*50
1504559040.45,14612,16.44,73710.5,-2.97,-8.33,-9.83,0,*56
1504559041.73,14613,16.44,73704.3,-2.97,-8.11,-9.53,0,*5A
1504559042.95,14614,16.44,73698.8,-2.99,-8.21,-9.45,0,*57
1504559044.19,14615,16.44,73702.8,-2.97,-8.85,-10.09,0,*66
1504559045.43,14616,16.44,73710.0,-2.97,-9.75,-11.33,0,*63
1504559046.66,14617,16.44,73704.0,-2.99,-9.97,-11.07,0,*67
1504559047.92,14618,16.44,73712.0,-2.99,-10.79,-11.89,0,*56
1504559049.16,14619,16.44,73716.0,-2.97,-10.35,-11.11,0,*50
1504559050.41,14620,16.44,73712.3,-2.97,-11.11,-11.81,0,*54
1504559051.64,14621,16.44,73712.5,-2.99,-11.51,-12.29,0,*5E
1504559052.9,14622,16.44,73710.5,-2.99,-11.89,-12.53,0,*55
1504559054.14,14623,16.44,73710.3,-2.97,-12.29,-12.39,0,*5F
1504559055.35,14624,16.44,73710.3,-2.99,-12.39,-12.47,0,*5E
1504559056.55,14625,16.44,73712.3,-2.99,-12.47,-13.07,0,*53
1504559057.76,14626,16.44,73708.5,-2.99,-12.03,-13.51,0,*53
1504559059.02,14627,16.44,73710.8,-2.97,-12.03,-14.05,0,*5A
1504559060.26,14628,16.44,73714.0,-2.99,-12.35,-14.89,0,*5A
1504559061.49,14629,16.44,73716.5,-2.99,-13.47,-15.35,0,*59
1504559062.72,14630,16.44,73716.0,-2.99,-13.33,-15.75,0,*56
1504559063.96,14631,16.44,73718.0,-2.99,-13.61,-16.93,0,*5B
1504559065.21,14632,16.44,73714.3,-2.99,-14.79,-17.41,0,*58
1504559066.5,14633,16.44,73718.5,-3.01,-15.39,-17.17,0,*5F
1504559067.79,14634,16.44,73716.0,-3.01,-17.03,-18.01,0,*5B
1504559069.04,14635,16.44,73718.5,-3.01,-15.57,-16.41,0,*53
1504559070.3,14636,16.44,73716.8,-3.03,-16.31,-18.01,0,*5B
1504559071.53,14637,16.44,73718.3,-3.03,-16.31,-17.49,0,*59
1504559072.79,14638,16.44,73716.3,-3.01,-14.93,-16.55,0,*52
1504559074.02,14639,16.44,73714.0,-3.03,-14.93,-14.29,0,*58
1504559075.28,14640,16.44,73714.3,-3.03,-12.53,-13.83,0,*5B
1504559076.51,14641,16.44,73718.5,-3.03,-12.83,-14.23,0,*5A
1504559077.74,14642,16.44,73722.3,-3.03,-12.57,-14.29,0,*5A
1504559078.95,14643,16.44,73722.0,-3.03,-15.11,-15.11,0,*54
1504559080.21,14644,16.44,73714.5,-3.03,-15.81,-14.05,0,*5E
1504559081.44,14645,16.44,73712.0,-3.03,-13.69,-12.57,0,*5E
1504559082.7,14646,16.44,73710.8,-3.05,-12.11,-11.23,0,*55
1504559083.89,14647,16.44,73712.0,-3.03,-9.31,-8.55,0,*53
1504559085.11,14648,16.44,73712.5,-3.03,-7.01,-7.49,0,*53
1504559086.33,14649,16.44,73706.3,-3.03,-6.39,-7.69,0,*5A
1504559087.55,14650,16.44,73710.3,-3.05,-6.39,-7.49,0,*56
1504559088.77,14651,16.44,73708.5,-3.05,-6.31,-8.21,0,*5E
1504559090.01,14652,16.44,73712.3,-3.05,-6.69,-7.99,0,*5C
1504559091.23,14653,16.44,73716.5,-3.05,-6.43,-9.93,0,*51
1504559092.46,14654,16.44,73714.5,-3.03,-7.61,-13.65,0,*63
1504559093.66,14655,16.44,73712.3,-3.03,-10.31,-16.89,0,*56
1504559094.93,14656,16.44,73710.8,-3.03,-12.11,-17.21,0,*56
1504559096.17,14657,16.44,73704.0,-3.03,-14.51,-16.83,0,*5C
1504559097.42,14658,16.44,73700.0,-3.05,-14.69,-17.21,0,*57
1504559098.64,14659,16.44,73706.0,-3.05,-15.29,-18.17,0,*59
1504559099.88,14660,16.44,73704.8,-3.07,-15.89,-18.11,0,*5D
1504559101.16,14661,16.44,73704.3,-3.05,-15.01,-15.89,0,*52
1504559102.44,14662,16.44,73706.8,-3.05,-13.29,-15.35,0,*5A
1504559103.67,14663,16.44,73706.5,-3.07,-13.43,-16.27,0,*55
1504559104.91,14664,16.44,73708.5,-3.07,-14.61,-17.07,0,*56
1504559106.18,14665,16.44,73714.5,-3.05,-14.55,-16.75,0,*56
1504559107.4,14666,16.44,73702.8,-3.07,-14.93,-16.93,0,*55
1504559108.64,14667,16.44,73708.5,-3.07,-13.33,-14.65,0,*52
1504559109.86,14668,16.44,73706.3,-3.07,-12.65,-13.93,0,*51
1504559111.13,14669,16.44,73706.3,-3.07,-11.67,-13.61,0,*5C
1504559112.36,14670,16.44,73700.5,-3.07,-11.67,-13.73,0,*57
1504559113.59,14671,16.44,73706.5,-3.07,-12.65,-14.15,0,*50
1504559114.83,14672,16.44,73706.8,-3.07,-13.43,-15.01,0,*52
1504559116.04,14673,16.44,73706.3,-3.07,-13.65,-14.65,0,*54
1504559117.24,14674,16.44,73710.8,-3.07,-12.89,-13.07,0,*53
1504559118.45,14675,16.44,73712.5,-3.07,-10.49,-10.85,0,*55
1504559119.68,14676,16.44,73710.8,-3.07,-10.49,-11.07,0,*5D
1504559120.87,14677,16.44,73712.8,-3.07,-9.89,-10.85,0,*63
1504559122.1,14678,16.44,73706.8,-3.07,-11.51,-13.43,0,*59
1504559123.35,14679,16.44,73704.3,-3.05,-10.75,-11.01,0,*59
1504559124.59,14680,16.44,73708.5,-3.07,-11.11,-10.75,0,*5C
1504559125.79,14681,16.44,73714.8,-3.07,-10.35,-9.31,0,*62
1504559127.02,14682,16.44,73708.5,-3.07,-8.71,-8.03,0,*58
1504559128.24,14683,16.44,73708.5,-3.05,-7.19,-8.29,0,*52
1504559129.46,14684,16.44,73708.5,-3.07,-7.77,-9.27,0,*50
1504559130.7,14685,16.44,73710.8,-3.07,-9.05,-11.63,0,*63
1504559131.97,14686,16.44,73712.3,-3.05,-10.75,-13.87,0,*55
1504559133.26,14687,16.44,73714.8,-3.05,-14.01,-16.65,0,*5A
1504559134.53,14688,16.44,73716.8,-3.05,-15.01,-17.21,0,*55
1504559135.77,14689,16.44,73714.5,-3.05,-14.15,-15.63,0,*54
1504559137.0,14690,16.44,73708.8,-3.07,-13.51,-15.29,0,*57
1504559138.21,14691,16.44,73710.5,-3.07,-14.33,-16.41,0,*58
1504559139.44,14692,16.44,73714.3,-3.07,-14.75,-16.41,0,*59
1504559140.67,14693,16.44,73712.5,-3.05,-15.11,-16.79,0,*52
1504559141.93,14694,16.44,73712.3,-3.05,-15.25,-15.85,0,*52
1504559143.16,14695,16.44,73712.5,-3.07,-13.65,-15.01,0,*5F
1504559144.41,14696,16.44,73714.8,-3.07,-13.51,-15.81,0,*53
1504559145.62,14697,16.44,73714.0,-3.07,-13.93,-15.75,0,*57
1504559146.88,14698,16.44,73712.0,-3.07,-13.87,-15.35,0,*59
1504559148.14,14699,16.44,73712.8,-3.07,-13.79,-16.65,0,*5F
1504559149.36,14700,16.44,73712.8,-3.07,-14.75,-16.93,0,*5C
1504559150.58,14701,16.44,73712.8,-3.07,-15.75,-17.69,0,*58
1504559151.81,14702,16.44,73708.0,-3.07,-16.03,-17.45,0,*57
1504559153.07,14703,16.44,73706.8,-3.09,-15.39,-16.97,0,*5C
1504559154.3,14704,16.44,73714.8,-3.11,-14.93,-16.37,0,*59
1504559155.53,14705,16.44,73706.8,-3.09,-15.29,-16.93,0,*5F
1504559156.74,14706,16.44,73712.0,-3.07,-15.67,-16.83,0,*59
1504559158.0,14707,16.44,73702.8,-3.09,-15.39,-16.37,0,*52
1504559159.24,14708,16.44,73706.5,-3.07,-15.63,-15.81,0,*52
1504559160.44,14709,16.44,73704.5,-3.07,-14.61,-14.19,0,*50
1504559161.73,14710,16.44,73708.8,-3.09,-13.61,-13.33,0,*5E
1504559162.98,14711,16.44,73710.3,-3.09,-12.89,-13.01,0,*59
1504559164.22,14712,16.44,73706.3,-3.11,-11.93,-12.47,0,*58
1504559165.46,14713,16.44,73710.3,-3.11,-12.07,-12.25,0,*53
1504559166.69,14714,16.44,73708.3,-3.11,-12.47,-12.57,0,*55
1504559167.95,14715,16.44,73710.0,-3.09,-12.75,-12.47,0,*5D
1504559169.22,14716,16.44,73708.0,-3.09,-11.93,-12.29,0,*5D
1504559170.49,14717,16.44,73702.8,-3.11,-11.29,-12.53,0,*59
1504559171.73,14718,16.44,73702.3,-3.11,-11.29,-12.39,0,*5A
1504559172.99,14719,16.44,73704.3,-3.09,-11.11,-12.53,0,*55
1504559174.23,14720,16.44,73704.0,-3.11,-11.55,-13.19,0,*59
1504559175.51,14721,16.44,73704.0,-3.09,-11.51,-13.01,0,*5C
1504559176.74,14722,16.44,73706.0,-3.11,-11.97,-12.39,0,*56
1504559178.01,14723,16.44,73704.0,-3.09,-12.03,-11.93,0,*53
1504559179.27,14724,16.44,73706.0,-3.11,-11.55,-12.57,0,*56
1504559180.52,14725,16.44,73706.5,-3.11,-11.55,-12.57,0,*57
1504559181.79,14726,16.44,73704.8,-3.11,-11.93,-12.57,0,*5E
1504559183.02,14727,16.44,73708.0,-3.11,-11.15,-12.35,0,*55
1504559184.23,14728,16.44,73704.8,-3.11,-11.15,-12.97,0,*52
1504559185.49,14729,16.44,73708.8,-3.11,-11.63,-12.83,0,*57
1504559186.7,14730,16.44,73710.5,-3.11,-12.25,-13.07,0,*53
1504559187.95,14731,16.44,73712.3,-3.11,-12.53,-13.19,0,*5C
1504559189.17,14732,16.44,73712.0,-3.11,-11.97,-13.69,0,*53
1504559190.43,14733,16.44,73716.0,-3.11,-11.51,-13.97,0,*59
1504559191.7,14734,16.44,73712.3,-3.11,-12.53,-14.97,0,*58
1504559192.91,14735,16.44,73714.5,-3.11,-13.23,-15.99,0,*50
1504559194.11,14736,16.44,73708.5,-3.11,-13.47,-16.41,0,*57
1504559195.35,14737,16.44,73708.0,-3.13,-12.97,-15.95,0,*52
1504559196.58,14738,16.44,73716.8,-3.11,-14.33,-16.31,0,*5A
1504559197.79,14739,16.44,73714.5,-3.11,-14.65,-15.53,0,*5F
1504559199.06,14740,16.44,73710.8,-3.09,-14.19,-14.47,0,*57
1504559200.3,14741,16.44,73712.0,-3.11,-13.19,-13.37,0,*58
1504559201.55,14742,16.44,73716.8,-3.11,-12.71,-13.79,0,*5E
1504559202.78,14743,16.44,73716.8,-3.11,-12.57,-15.67,0,*52
1504559204.0,14744,16.44,73718.3,-3.11,-14.19,-16.75,0,*59
1504559205.2,14745,16.44,73714.0,-3.11,-15.07,-16.97,0,*5A
1504559206.41,14746,16.44,73714.8,-3.11,-16.59,-18.17,0,*57
1504559207.65,14747,16.44,73714.3,-3.11,-17.35,-17.11,0,*54
1504559208.88,14748,16.44,73714.0,-3.11,-15.35,-15.67,0,*5A
1504559210.11,14749,16.44,73716.8,-3.11,-13.37,-15.71,0,*58
1504559211.36,14750,16.44,73716.8,-3.13,-15.21,-18.49,0,*55
1504559212.64,14751,16.44,73720.3,-3.13,-17.59,-18.35,0,*52
1504559213.9,14752,16.44,73712.8,-3.17,-17.55,-18.11,0,*5F
1504559215.14,14753,16.44,73716.3,-3.17,-16.45,-15.15,0,*57
1504559216.39,14754,16.44,73720.5,-3.13,-13.47,-12.83,0,*5B
1504559217.62,14755,16.44,73718.3,-3.17,-11.15,-13.73,0,*55
1504559218.88,14756,16.44,73708.3,-3.11,-11.37,-14.55,0,*53
1504559220.14,14757,16.44,73708.0,-3.17,-12.15,-14.69,0,*58
1504559221.4,14758,16.44,73710.3,-3.17,-14.15,-14.55,0,*5E
1504559222.66,14759,16.44,73712.5,-3.17,-12.75,-13.55,0,*58
1504559223.94,14760,16.44,73712.8,-3.13,-11.85,-12.57,0,*59
1504559225.22,14761,16.44,73718.0,-3.13,-11.81,-13.37,0,*5B
1504559226.47,14762,16.44,73714.5,-3.13,-12.83,-14.19,0,*52
1504559227.71,14763,16.44,73720.0,-3.17,-12.97,-14.37,0,*5E
1504559228.96,14764,16.44,73720.3,-3.17,-13.01,-13.07,0,*53
1504559230.23,14765,16.44,73716.0,-3.13,-12.97,-12.71,0,*58
1504559231.46,14766,16.44,73716.3,-3.13,-12.97,-13.07,0,*5B
1504559232.71,14767,16.44,73718.0,-3.17,-12.39,-11.97,0,*51
1504559233.97,14768,16.44,73722.8,-3.13,-10.31,-11.37,0,*5A
1504559235.22,14769,16.44,73722.3,-3.13,-10.85,-11.85,0,*5D
1504559236.47,14770,16.44,73718.8,-3.17,-10.19,-11.33,0,*59
1504559237.72,14771,16.44,73720.8,-3.13,-9.83,-11.23,0,*66
1504559238.98,14772,16.44,73726.3,-3.17,-10.45,-11.29,0,*59
1504559240.24,14773,16.44,73718.5,-3.13,-10.57,-12.79,0,*59
1504559241.46,14774,16.44,73706.0,-3.13,-10.53,-11.15,0,*53
1504559242.71,14775,16.44,73696.3,-3.13,-9.93,-10.41,0,*66
1504559244.0,14776,16.44,73696.5,-3.13,-9.45,-10.67,0,*6A
1504559245.25,14777,16.44,73710.0,-3.17,-10.05,-11.59,0,*5F
1504559246.5,14778,16.44,73704.3,-3.13,-11.73,-12.93,0,*51
1504559247.76,14779,16.44,73714.0,-3.13,-10.89,-12.79,0,*50
1504559249.02,14780,16.44,73710.0,-3.13,-11.85,-12.97,0,*5B
1504559250.25,14781,16.44,73698.8,-3.13,-11.11,-11.11,0,*5A
1504559251.48,14782,16.44,73710.8,-3.13,-9.71,-11.23,0,*67
1504559252.73,14783,16.44,73704.3,-3.13,-10.27,-12.57,0,*5D
1504559253.96,14784,16.44,73712.0,-3.13,-10.89,-14.69,0,*55
1504559255.22,14785,16.44,73706.8,-3.13,-12.97,-14.55,0,*56
1504559256.48,14786,16.44,73710.8,-3.13,-11.29,-12.25,0,*52
1504559257.74,14787,16.44,73708.3,-3.13,-10.05,-12.71,0,*5D
1504559258.97,14788,16.44,73710.3,-3.13,-11.15,-15.07,0,*54
1504559260.22,14789,16.44,73706.5,-3.13,-12.65,-13.55,0,*50
1504559261.46,14790,16.44,73704.8,-3.17,-11.45,-12.89,0,*5D
1504559262.73,14791,16.44,73712.8,-3.13,-11.11,-12.71,0,*5E
1504559263.99,14792,16.44,73688.8,-3.13,-11.67,-12.21,0,*59
1504559265.22,14793,16.44,73706.8,-3.13,-10.53,-10.27,0,*5A
1504559266.44,14794,16.44,73696.8,-3.13,-9.89,-10.97,0,*69
1504559267.7,14795,16.44,73700.8,-3.13,-10.27,-11.37,0,*5F
1504559268.96,14796,16.44,73700.5,-3.13,-10.15,-12.07,0,*5D
1504559270.22,14797,16.44,73700.8,-3.11,-11.07,-14.79,0,*53
1504559271.49,14798,16.44,73704.8,-3.13,-12.71,-15.53,0,*55
1504559272.72,14799,16.44,73708.3,-3.13,-12.97,-15.11,0,*5A
1504559273.99,14800,16.44,73702.0,-3.13,-14.51,-15.95,0,*55
1504559275.25,14801,16.44,73712.5,-3.13,-15.25,-15.39,0,*50
1504559276.54,14802,16.44,73712.0,-3.13,-14.05,-12.57,0,*5F
1504559277.77,14803,16.44,73700.3,-3.13,-13.23,-13.55,0,*5E
1504559279.04,14804,16.44,73704.8,-3.13,-11.11,-12.71,0,*5D
1504559280.29,14805,16.44,73700.8,-3.13,-10.67,-13.47,0,*58
1504559281.52,14806,16.44,73702.3,-3.13,-11.11,-13.65,0,*5B
1504559282.77,14807,16.44,73706.0,-3.13,-12.25,-13.83,0,*56
1504559284.06,14808,16.44,73714.5,-3.17,-12.75,-12.75,0,*50
1504559285.32,14809,16.44,73712.5,-3.13,-13.07,-11.37,0,*54
1504559286.57,14810,16.44,73714.8,-3.13,-11.11,-10.79,0,*52
1504559287.79,14811,16.44,73712.3,-3.13,-9.89,-12.47,0,*64
1504559289.07,14812,16.44,73706.8,-3.13,-9.49,-12.79,0,*66
1504559290.29,14813,16.44,73710.8,-3.13,-9.75,-13.65,0,*64
1504559291.54,14814,16.44,73708.0,-3.13,-9.61,-13.23,0,*64
1504559292.78,14815,16.44,73710.0,-3.13,-11.11,-12.93,0,*51
1504559294.03,14816,16.44,73700.8,-3.13,-12.97,-12.57,0,*57
1504559295.29,14817,16.44,73702.0,-3.13,-13.55,-11.51,0,*5C
1504559296.55,14818,16.44,73706.3,-3.17,-11.77,-10.05,0,*55
1504559297.82,14819,16.44,73710.8,-3.13,-11.97,-9.11,0,*63
1504559299.1,14820,16.44,73710.3,-3.17,-11.55,-7.99,0,*6D
1504559300.35,14821,16.44,73708.0,-3.13,-10.01,-6.93,0,*63
1504559301.6,14822,16.44,73712.5,-3.13,-9.05,-6.23,0,*57
1504559302.84,14823,16.44,73714.3,-3.13,-7.99,-6.01,0,*5D
1504559304.11,14824,16.44,73712.8,-3.13,-7.35,-5.85,0,*53